Location: Unspecified
(0.0000°N, 0.0000°E)
Time: 20:31:55
(UTC+00:00)

ISS - Visible Passes

Search period start: 18 December 2017 00:00
Search period end: 28 December 2017 00:00
Orbit: 402 x 406 km, 51.6° (Epoch: 19 December)

Date Brightness Start Highest point End Pass type
(mag) Time Alt. Az. Time Alt. Az. Time Alt. Az.
18 Dec -4.0 19:15:44 10° NNW 19:19:00 82° NE 19:19:43 51° SE visible
19 Dec -2.8 18:23:59 10° N 18:26:47 26° NE 18:29:36 10° ESE visible
20 Dec -1.1 19:08:12 10° WNW 19:10:50 22° SW 19:13:28 10° S visible
23 Dec -1.1 04:57:36 10° S 05:00:16 23° SE 05:02:56 10° ENE visible
25 Dec -4.0 04:48:43 10° SW 04:51:59 79° NW 04:55:14 10° NNE visible
26 Dec -0.7 04:02:31 11° ENE 04:02:31 11° ENE 04:02:40 10° ENE visible
